Regional Weather Roundup
Issued by NWS Cleveland, OH

Home | Current Version | Previous Version | Text Only | Print | Product List | Glossary Off
Versions: 1 2 3 4 5 6 7 8 9 10 11 12 13 14 15 16 17 18 19 20 21 22 23 24 25 26 27 28 29 30 31 32 33 34 35 36 37 38 39 40 41 42 43 44 45 46 47 48 49 50

000
ASUS41 KCLE 170902
RWRCLE
OHIO REGIONAL WEATHER ROUNDUP
NATIONAL WEATHER SERVICE CLEVELAND, OH
500 AM EDT THU APR 17 2014

NOTE: "FAIR" INDICATES FEW OR NO CLOUDS BELOW 12,000 FEET WITH NO
SIGNIFICANT WEATHER AND/OR OBSTRUCTIONS TO VISIBILITY.

OHZ001>008-015>018-024>027-034-035-043-044-171000-
   NORTHWEST OHIO

CITY           SKY/WX    TMP DP  RH WIND       PRES   REMARKS
DEFIANCE       CLEAR     32  25  75 E6        30.30S WCI  26
FINDLAY        CLEAR     34  23  64 E6        30.29S WCI  29
TOLEDO EXPRESS CLEAR     32  22  66 E3        30.31S
TOLEDO EXEC    CLEAR     33  22  63 E7        30.33S WCI  27
LIMA           CLEAR     35  23  61 SE10      30.27S WCI  27
$$

OHZ009>014-019>023-028>033-038-089-171000-
   NORTHEAST OHIO

CITY           SKY/WX    TMP DP  RH WIND       PRES   REMARKS
CLE-HOPKINS    MOCLDY    40  18  41 SE10      30.37R
CLE-LAKEFRONT  CLEAR     39  18  42 SE18G28   30.33S
CUY CO. ARPT   NOT AVBL
LORAIN-ELYRIA  PTCLDY    39  21  48 S12       30.34S
ASHTABULA      PTCLDY    36  17  46 SE8       30.40R
AKRON-CANTON   MOCLDY    36  18  48 SE12      30.35R
WOOSTER        MOCLDY    35  21  56 SE9       30.34R WCI  28
MANSFIELD      MOCLDY    35  19  52 SE13      30.31R WCI  26
YOUNGSTOWN     MOCLDY    36  16  44 SE15      30.37S
$$

OHZ042-051>053-060>062-070>072-077>081-171000-
  SOUTHWEST OHIO

CITY           SKY/WX    TMP DP  RH WIND       PRES   REMARKS
CINC-COVINGTON PTCLDY    39  23  52 SE6       30.27R
CINC-LUNKEN    CLEAR     31  27  85 CALM      30.30R
HAMILTON       CLEAR     32  26  78 CALM      30.29R
DAYTON         PTCLDY    37  23  56 SE9       30.28S
WRIGHT-PAT AFB CLEAR     36  22  58 E5        30.28S
DAYTON GENERAL CLEAR     37  23  56 SE6       30.27R
WILMINGTON     CLEAR     35  23  61 SE6       30.28R
$$

OHZ036-037-039>041-045>050-054>059-063>069-073>076-082>088-171000-
  CENTRAL AND SOUTHEAST OHIO

CITY           SKY/WX    TMP DP  RH WIND       PRES   REMARKS
COLUMBUS       CLOUDY    40  19  43 SE8       30.31R
OSU AIRPORT    MOCLDY    38  19  46 SE9       30.31R
BOLTON FIELD   NOT AVBL
RICKENBACK AFB NOT AVBL
NEWARK         PTCLDY    36  19  50 SE5       30.32R
MARION         PTCLDY    34  21  59 SE10      30.30S WCI  26
LANCASTER      MOCLDY    37  20  50 SE6       30.32R
ZANESVILLE     PTCLDY    37  20  50 SE6       30.34R
NEW PHILLY     PTCLDY    37  19  48 SE9       30.37R
$$



USA.gov is the U.S. government's official web portal to all federal, state and local government web resources and services.